Regional Weather Roundup
Issued by NWS

Home | Current Version | Previous Version | Graphics & Text | Print | Product List | Glossary On
Versions: 1 2 3 4 5 6 7 8 9 10 11 12 13 14 15 16 17 18 19 20 21 22 23 24 25 26 27 28 29 30 31 32 33 34 35 36 37 38 39 40 41 42 43 44 45 46 47 48 49 50
000
ASUS45 KBOU 031910
RWRCO

WEATHER ROUNDUP FOR COLORADO
NATIONAL WEATHER SERVICE DENVER/BOULDER CO
100 PM MDT FRI JUL 03 2015

NOTE: "FAIR" INDICATES FEW OR NO CLOUDS BELOW 12000 FEET WITH NO
SIGNIFICANT WEATHER AND/OR OBSTRUCTIONS TO VISIBILITY.

COZ001>005-013-030-031-032000-
...NORTHWEST COLORADO...

CITY           SKY/WX    TMP DP  RH WIND       PRES   REMARKS
CRAIG          SUNNY     88  41  19 VRB3      30.16F
HAYDEN         SUNNY     82  39  21 CALM      30.19F
MEEKER         SUNNY     86  39  19 VRB7      30.17F
MOUNT WERNER   NOT AVBL
STEAMBOAT SPGS SUNNY     81  40  23 SW8       30.21F
WALDEN         SUNNY     75  32  20 N8        30.32F
$$

COZ006>008-011-032000-
...WEST CENTRAL VALLEYS...

CITY           SKY/WX    TMP DP  RH WIND       PRES   REMARKS
GRAND JUNCTION SUNNY     91  49  23 VRB5      30.04F
MONTROSE       SUNNY     90  48  23 N9        30.13F
EAGLE          MOSUNNY   84  41  21 CALM      30.19F
RIFLE          MOSUNNY   90  46  21 NW8       30.09F
DELTA          SUNNY     93  47  20 S5        30.08F
NUCLA          SUNNY     88  45  22 S7        30.18F
$$

COZ017>023-064>068-032000-
...SOUTHWEST COLORADO...

CITY           SKY/WX    TMP DP  RH WIND       PRES   REMARKS
DURANGO        MOSUNNY   82  49  31 W12       30.24F
CORTEZ         SUNNY     84  52  33 SW8       30.19F
PAGOSA SPRINGS MOSUNNY   75  48  37 E5        30.33F
TELLURIDE      MOSUNNY   73  44  36 SW6       30.43F
WOLF CREEK PAS NOT AVBL
$$

COZ009-010-012-014-032>034-037-058>063-032000-
...CENTRAL COLORADO...

CITY           SKY/WX    TMP DP  RH WIND       PRES   REMARKS
ASPEN          MOSUNNY   80  42  25 VRB7      30.26F
BUENA VISTA    MOSUNNY   76  49  38 SE13      30.29F
COPPER MTN     MOSUNNY   64  30  27 W25G33    30.62F
BERTHOUD PASS  PTSUNNY   52  43  71 N6        30.68F
COTTONWOOD PAS NOT AVBL
GUNNISON       SUNNY     75  43  31 SW6       30.32F
KREMMLING      SUNNY     82  32  16 S6        30.26F
LEADVILLE      MOSUNNY   71  34  25 N12       30.42F
MONARCH PASS   PTSUNNY   52  43  71 W31G37    30.71F
SALIDA         MOSUNNY   80  49  32 SE7       30.33F
SUNLIGHT       MOSUNNY   68  45  42 CALM      30.56F
WILKERSON PASS LGT RAIN  57  45  62 CALM      30.59F
$$

COZ069>075-032000-
...SAN LUIS VALLEY/SANGRE DE CRISTO MOUNTAINS...

CITY           SKY/WX    TMP DP  RH WIND       PRES   REMARKS
ALAMOSA        MOSUNNY   73  50  44 W10       30.31F
LA VETA PASS   PTSUNNY   66  46  48 MISG      30.50F
SAGUACHE       SUNNY     70  50  49 SW3       30.34F
$$

COZ035-036-038>040-032000-
...NORTHERN COLORADO FRONT RANGE...

CITY           SKY/WX    TMP DP  RH WIND       PRES   REMARKS
DENVER INTL AP MOSUNNY   78  56  46 VRB3      30.16F
DMNS CITY PARK   N/A     77  56  47 E7G13     30.15F
AURORA         MOSUNNY   77  58  52 S6        30.18F
FRONT RANGE AP MOSUNNY   77  59  53 SE6       30.18F
ERIE MUNI ARPT SUNNY     78  55  45 SE3       30.15F
BOULDER MUN AP SUNNY     77  55  47 CALM      30.16F
CENTENNIAL     MOSUNNY   76  56  49 N5        30.19F
BROOMFIELD     MOSUNNY   75  57  53 VRB5      30.19F
FORT COLLINS   SUNNY     77  57  50 CALM      30.15F
LONGMONT       SUNNY     83  56  40 NE5       30.16F
$$

COZ041-046-047-076>085-087-088-032000-
...PIKES PEAK/PALMER DIVIDE AND SOUTHERN FOOTHILLS...

CITY           SKY/WX    TMP DP  RH WIND       PRES   REMARKS
COLO. SPRINGS  MOSUNNY   76  57  51 S9        30.22F
A. F. ACADEMY  MOSUNNY   74  56  52 SE9       30.23F
ELLICOTT       MOSUNNY  N/A N/A N/A VRB6      30.21F
FALCON         SUNNY     74  53  48 SE9       30.28S
FORT CARSON    NOT AVBL
LIMON          MOSUNNY   77  57  50 SE8       30.17F
MONUMENT HILL  NOT AVBL
TRINIDAD       PTSUNNY   83  56  39 MISG      30.16F
$$

COZ042>045-048>051-090-091-032000-
...NORTHEAST COLORADO...

CITY           SKY/WX    TMP DP  RH WIND       PRES   REMARKS
GREELEY ARPT   SUNNY     79  61  53 N5        30.14F
AKRON          SUNNY     77  57  50 N3        30.14F
BURLINGTON     MOSUNNY   83  52  34 CALM      30.12F
WRAY           SUNNY     86  53  33 S5        30.09F
STERLING       SUNNY     81  59  47 CALM        N/A
HOLYOKE        SUNNY     86  52  30 CALM      30.09F
FORT MORGAN    SUNNY     81  53  37 SE5       30.14F
$$

COZ086-089-092>099-032000-
...SOUTHEAST COLORADO...

CITY           SKY/WX    TMP DP  RH WIND       PRES   REMARKS
PUEBLO         SUNNY     84  56  38 VRB5      30.10F
LA JUNTA       SUNNY     86  58  38 E3        30.09F
LAMAR          SUNNY     86  61  42 E5        30.05F
SPRINGFIELD      N/A     86  54  33 VRB3      30.09F
$$


USA.gov is the U.S. government's official web portal to all federal, state and local government web resources and services.